N4DWK Weather Reports


Display with metric or nautical units.
time (UTC)temp
F
wind
direction
speed
MPH
gust
MPH
rain 1hr
in
rain 24hr
in
rain mn
in
humidity
%
barometer
mb
20260902030004 81 223 0.0 0.0 0.00 0.00 0.00 82 1015.5
20260902025505 81 223 0.0 0.0 0.00 0.00 0.00 83 1015.5
20260902025005 81 223 0.0 0.0 0.00 0.00 0.00 82 1015.4
20260902024504 81 223 0.0 0.0 0.00 0.00 0.00 82 1015.5
20260902024004 81 223 0.0 0.0 0.00 0.00 0.00 81 1015.5
20260902023504 81 223 0.0 0.0 0.00 0.00 0.00 81 1015.5
20260902023004 81 223 0.0 0.0 0.00 0.00 0.00 81 1015.5
20260902022505 82 223 0.0 0.0 0.00 0.00 0.00 81 1015.5
20260902022006 82 223 0.0 0.0 0.00 0.00 0.00 81 1015.6
20260902021505 82 223 0.0 0.0 0.00 0.00 0.00 81 1015.5
20260902021004 82 223 0.0 0.0 0.00 0.00 0.00 80 1015.5
20260902020504 82 223 0.0 0.0 0.00 0.00 0.00 80 1015.6
20260902020004 82 223 0.0 0.0 0.00 0.00 0.00 80 1015.4
20260902015504 82 223 0.0 0.0 0.00 0.00 0.00 79 1015.3
20260902015005 82 223 0.0 0.0 0.00 0.00 0.00 79 1015.2
20260902014505 83 223 0.0 0.0 0.00 0.00 0.00 79 1015.1
20260902014005 83 223 0.0 0.0 0.00 0.00 0.00 79 1015.1
20260902013505 83 223 0.0 0.0 0.00 0.00 0.00 78 1015.0
20260902013004 83 223 0.0 0.0 0.00 0.00 0.00 78 1014.9
20260902012504 83 223 0.0 0.0 0.00 0.00 0.00 78 1014.8
20260902012004 83 223 0.0 0.0 0.00 0.00 0.00 78 1014.8
20260902011504 83 223 0.0 0.0 0.00 0.00 0.00 77 1014.7
20260902011004 84 223 0.0 0.0 0.00 0.00 0.00 77 1014.7
20260902010504 84 223 0.0 0.0 0.00 0.00 0.00 77 1014.7
20260902010005 84 223 0.0 0.0 0.00 0.00 0.00 76 1014.6
20260902005504 84 223 0.0 0.0 0.00 0.00 0.00 76 1014.6
20260902005005 84 223 0.0 0.0 0.00 0.00 0.00 75 1014.6
20260902004505 85 223 0.0 0.0 0.00 0.00 0.00 75 1014.6
20260902004004 85 223 0.0 0.0 0.00 0.00 0.00 74 1014.6
20260902003504 85 223 0.0 0.0 0.00 0.00 0.00 74 1014.4
20260902003005 86 223 0.0 0.0 0.00 0.00 0.00 74 1014.3
20260902002505 86 223 0.0 0.0 0.00 0.00 0.00 73 1014.3
20260902002004 86 223 0.0 0.0 0.00 0.00 0.00 73 1014.4
20260902001504 86 223 0.0 0.0 0.00 0.00 0.00 72 1014.3
20260902001004 87 223 0.0 0.0 0.00 0.00 0.00 72 1014.4
20260902000503 87 223 0.0 0.0 0.00 0.00 0.00 71 1014.3
20260902000004 87 223 0.0 0.0 0.00 0.00 0.00 71 1014.3
20260901235504 87 223 0.0 0.0 0.00 0.00 0.00 70 1014.2
20260901235004 88 223 0.0 0.0 0.00 0.00 0.00 69 1014.3
20260901234504 88 223 0.0 0.0 0.00 0.00 0.00 69 1014.3
20260901234004 88 223 0.0 0.0 0.00 0.00 0.00 68 1014.3
20260901233505 89 223 0.0 0.0 0.00 0.00 0.00 67 1014.3
20260901233004 89 223 0.0 0.0 0.00 0.00 0.00 67 1014.3
20260901232504 89 223 0.0 0.0 0.00 0.00 0.00 66 1014.4
20260901232004 90 223 0.0 0.0 0.00 0.00 0.00 65 1014.4
20260901231504 91 223 0.0 0.0 0.00 0.00 0.00 64 1014.5
20260901231004 91 223 0.0 0.0 0.00 0.00 0.00 62 1014.5
20260901230503 92 223 0.0 0.0 0.00 0.00 0.00 61 1014.5
20260901230004 92 223 0.0 0.0 0.00 0.00 0.00 61 1014.5
20260901225504 93 223 0.0 2.0 0.00 0.00 0.00 60 1014.5
20260901225003 93 223 0.0 3.0 0.00 0.00 0.00 58 1014.6
20260901224504 93 223 2.0 3.0 0.00 0.00 0.00 57 1014.7
20260901224005 93 223 1.0 3.0 0.00 0.00 0.00 57 1014.7
20260901223503 94 223 2.0 3.0 0.00 0.00 0.00 56 1014.7
20260901223004 94 223 1.0 3.0 0.00 0.00 0.00 57 1014.8
20260901222504 94 223 1.0 3.0 0.00 0.00 0.00 56 1014.8
20260901222004 95 223 0.0 3.0 0.00 0.00 0.00 56 1014.8
20260901221505 95 223 2.0 3.0 0.00 0.00 0.00 54 1014.8
20260901221004 95 223 2.0 3.0 0.00 0.00 0.00 54 1014.9
20260901220504 96 223 1.0 3.0 0.00 0.00 0.00 54 1014.9
20260901220004 96 223 2.0 3.0 0.00 0.00 0.00 53 1014.9
20260901215504 96 223 0.0 2.0 0.00 0.00 0.00 53 1014.9
20260901215004 96 223 1.0 3.0 0.00 0.00 0.00 53 1014.9
20260901214504 96 223 0.0 5.0 0.00 0.00 0.00 54 1014.9
20260901214004 97 284 1.0 5.0 0.00 0.00 0.00 54 1014.9
20260901213504 97 225 2.0 3.0 0.00 0.00 0.00 53 1014.9
20260901213004 97 232 1.0 3.0 0.00 0.00 0.00 52 1014.9
20260901212503 96 232 1.0 3.0 0.00 0.00 0.00 52 1014.9
20260901212004 97 245 0.0 2.0 0.00 0.00 0.00 52 1014.9
20260901211503 97 209 0.0 3.0 0.00 0.00 0.00 52 1014.9
20260901211005 97 210 2.0 3.0 0.00 0.00 0.00 51 1015.0
20260901210503 97 216 1.0 6.0 0.00 0.00 0.00 53 1015.0
20260901210004 97 214 2.0 6.0 0.00 0.00 0.00 51 1015.0
20260901205504 97 230 2.0 3.0 0.00 0.00 0.00 51 1015.1
20260901205005 98 320 1.0 5.0 0.00 0.00 0.00 51 1015.1
20260901204506 97 223 3.0 5.0 0.00 0.00 0.00 51 1015.1
20260901204004 98 268 0.0 3.0 0.00 0.00 0.00 52 1015.1
20260901203504 97 48 0.0 2.0 0.00 0.00 0.00 52 1015.2
20260901203004 98 0 0.0 3.0 0.00 0.00 0.00 51 1015.2
20260901202504 98 0 1.0 7.0 0.00 0.00 0.00 51 1015.2
20260901202004 97 0 1.0 7.0 0.00 0.00 0.00 54 1015.3
20260901201503 97 4 3.0 6.0 0.00 0.00 0.00 53 1015.4
20260901201004 96 12 1.0 8.0 0.00 0.00 0.00 54 1015.5
20260901200505 97 1 4.0 8.0 0.00 0.00 0.00 52 1015.5
20260901200005 97 4 2.0 5.0 0.00 0.00 0.00 52 1015.5
20260901195504 97 16 2.0 5.0 0.00 0.00 0.00 52 1015.5
20260901195005 97 13 2.0 5.0 0.00 0.00 0.00 51 1015.5
20260901194504 97 5 1.0 5.0 0.00 0.00 0.00 52 1015.6
20260901194004 97 5 0.0 7.0 0.00 0.00 0.00 51 1015.6
20260901193505 97 6 2.0 7.0 0.00 0.00 0.00 50 1015.6
20260901193005 97 343 2.0 7.0 0.00 0.00 0.00 51 1015.6
20260901192504 96 15 2.0 6.0 0.00 0.00 0.00 54 1015.7
20260901192005 97 13 1.0 6.0 0.00 0.00 0.00 52 1015.8
20260901191504 98 350 2.0 6.0 0.00 0.00 0.00 49 1015.8
20260901191004 99 349 1.0 5.0 0.00 0.00 0.00 49 1015.8
20260901190504 98 9 1.0 7.0 0.00 0.00 0.00 50 1015.9
20260901190004 97 17 3.0 7.0 0.00 0.00 0.00 53 1016.0
20260901185504 97 11 2.0 5.0 0.00 0.00 0.00 50 1016.0
20260901185004 97 343 2.0 5.0 0.00 0.00 0.00 50 1016.1
20260901184503 97 225 2.0 5.0 0.00 0.00 0.00 52 1016.1
20260901184004 96 40 1.0 5.0 0.00 0.00 0.00 56 1016.1
20260901183504 96 62 2.0 3.0 0.00 0.00 0.00 53 1016.2
20260901183004 95 270 2.0 3.0 0.00 0.00 0.00 53 1016.3
20260901182503 97 332 1.0 3.0 0.00 0.00 0.00 51 1016.4
20260901182004 97 5 2.0 6.0 0.00 0.00 0.00 53 1016.3
20260901181505 96 307 3.0 6.0 0.00 0.00 0.00 53 1016.2
20260901181004 97 317 1.0 5.0 0.00 0.00 0.00 51 1016.1
20260901180504 96 5 3.0 5.0 0.00 0.00 0.00 55 1016.1
20260901180004 95 132 0.0 3.0 0.00 0.00 0.00 55 1016.1
20260901175503 95 132 2.0 3.0 0.00 0.00 0.00 56 1016.1
20260901175004 94 34 2.0 3.0 0.00 0.00 0.00 57 1016.1
20260901174504 95 18 1.0 6.0 0.00 0.00 0.00 58 1016.1
20260901174006 96 17 4.0 6.0 0.00 0.00 0.00 55 1016.1
20260901173504 96 5 2.0 5.0 0.00 0.00 0.00 57 1016.1
20260901173003 95 221 2.0 3.0 0.00 0.00 0.00 56 1016.1
20260901172504 95 221 1.0 3.0 0.00 0.00 0.00 57 1016.2
20260901172004 94 335 2.0 3.0 0.00 0.00 0.00 58 1016.2
20260901171503 94 24 2.0 3.0 0.00 0.00 0.00 56 1016.2
20260901171004 94 242 0.0 3.0 0.00 0.00 0.00 57 1016.3
20260901170503 94 321 0.0 3.0 0.00 0.00 0.00 60 1016.2
20260901170003 93 32 1.0 3.0 0.00 0.00 0.00 61 1016.3
20260901165503 92 304 1.0 5.0 0.00 0.00 0.00 64 1016.4
20260901165004 91 5 2.0 5.0 0.00 0.00 0.00 63 1016.5
20260901164503 91 265 1.0 3.0 0.00 0.00 0.00 64 1016.6
20260901164004 91 359 2.0 7.0 0.00 0.00 0.00 65 1016.6
20260901163503 90 13 3.0 7.0 0.00 0.00 0.00 64 1016.7
20260901163003 90 15 3.0 6.0 0.00 0.00 0.00 64 1016.8
20260901162503 91 13 3.0 7.0 0.00 0.00 0.00 66 1017.0
20260901162003 91 12 3.0 7.0 0.00 0.00 0.00 66 1017.0
20260901161504 90 0 3.0 6.0 0.00 0.00 0.00 65 1017.0
20260901161003 90 0 2.0 3.0 0.00 0.00 0.00 65 1017.1
20260901160504 89 273 0.0 3.0 0.00 0.00 0.00 66 1017.1
20260901160004 89 292 1.0 5.0 0.00 0.00 0.00 68 1017.2
20260901155504 89 5 3.0 6.0 0.00 0.00 0.00 69 1017.2
20260901155004 89 227 2.0 6.0 0.00 0.00 0.00 69 1017.2
20260901154503 88 252 1.0 3.0 0.00 0.00 0.00 69 1017.3
20260901154003 88 280 2.0 3.0 0.00 0.00 0.00 69 1017.3
20260901153503 87 355 0.0 5.0 0.00 0.00 0.00 71 1017.4
20260901153004 87 26 1.0 5.0 0.00 0.00 0.00 71 1017.4
20260901152503 87 347 2.0 3.0 0.00 0.00 0.00 72 1017.4
20260901152005 86 355 1.0 3.0 0.00 0.00 0.00 74 1017.4
20260901151503 86 355 1.0 3.0 0.00 0.00 0.00 74 1017.4
20260901151003 86 233 2.0 5.0 0.00 0.00 0.00 75 1017.5
20260901150503 85 330 1.0 5.0 0.00 0.00 0.00 76 1017.5
20260901150004 85 224 1.0 5.0 0.00 0.00 0.00 76 1017.5
20260901145504 85 356 2.0 5.0 0.00 0.00 0.00 78 1017.6
20260901145003 85 212 1.0 3.0 0.00 0.00 0.00 77 1017.6
20260901144504 85 211 2.0 3.0 0.00 0.00 0.00 78 1017.7
20260901144004 85 48 0.0 3.0 0.00 0.00 0.00 78 1017.7
20260901143503 85 48 1.0 3.0 0.00 0.00 0.00 78 1017.7
20260901143005 85 243 0.0 3.0 0.00 0.00 0.00 78 1017.7
20260901142503 84 243 1.0 3.0 0.00 0.00 0.00 79 1017.6
20260901142004 84 243 2.0 3.0 0.00 0.00 0.00 80 1017.7
20260901141504 84 232 0.0 3.0 0.00 0.00 0.00 81 1017.6
20260901141003 83 299 2.0 3.0 0.00 0.00 0.00 82 1017.6
20260901140503 83 344 1.0 3.0 0.00 0.00 0.00 82 1017.7
20260901140003 82 335 0.0 3.0 0.00 0.00 0.00 83 1017.7
20260901135503 82 18 1.0 3.0 0.00 0.00 0.00 84 1017.6
20260901135004 81 18 2.0 3.0 0.00 0.00 0.00 85 1017.6
20260901134504 81 235 0.0 0.0 0.00 0.00 0.00 85 1017.6
20260901134003 81 235 0.0 0.0 0.00 0.00 0.00 86 1017.7
20260901133504 81 235 0.0 3.0 0.00 0.00 0.00 87 1017.7
20260901133004 80 355 0.0 3.0 0.00 0.00 0.00 87 1017.6
20260901132503 80 5 1.0 5.0 0.00 0.00 0.00 88 1017.6
20260901132004 79 282 2.0 5.0 0.00 0.00 0.00 88 1017.6
20260901131504 79 305 0.0 3.0 0.00 0.00 0.00 90 1017.7
20260901131003 79 300 1.0 3.0 0.00 0.00 0.00 90 1017.8
20260901130503 78 283 1.0 3.0 0.00 0.00 0.00 91 1017.9
20260901130004 78 210 1.0 2.0 0.00 0.00 0.00 92 1017.8
20260901125503 77 210 1.0 3.0 0.00 0.00 0.00 92 1017.8
20260901125003 77 210 1.0 3.0 0.00 0.00 0.00 93 1017.8
20260901124504 76 210 2.0 3.0 0.00 0.00 0.00 93 1017.8
20260901124004 76 157 0.0 0.0 0.00 0.00 0.00 94 1017.8
20260901123504 76 157 0.0 0.0 0.00 0.00 0.00 94 1017.9
20260901123003 76 157 0.0 0.0 0.00 0.00 0.00 94 1017.8
20260901122503 76 157 0.0 0.0 0.00 0.00 0.00 94 1017.8
20260901122003 75 157 0.0 0.0 0.00 0.00 0.00 94 1017.8
20260901121503 75 157 0.0 0.0 0.00 0.00 0.00 94 1017.8
20260901121003 75 157 0.0 0.0 0.00 0.00 0.00 94 1017.8
20260901120503 75 157 0.0 0.0 0.00 0.00 0.00 94 1017.8
20260901120003 75 157 0.0 0.0 0.00 0.00 0.00 94 1017.8
20260901115503 75 157 0.0 0.0 0.00 0.00 0.00 95 1017.8
20260901115003 74 157 0.0 0.0 0.00 0.00 0.00 95 1017.8
20260901114503 74 157 0.0 0.0 0.00 0.00 0.00 94 1017.8
20260901114003 74 157 0.0 0.0 0.00 0.00 0.00 94 1017.7
20260901113503 74 157 0.0 0.0 0.00 0.00 0.00 94 1017.6
20260901113003 74 157 0.0 0.0 0.00 0.00 0.00 94 1017.5
20260901112503 74 157 0.0 0.0 0.00 0.00 0.00 94 1017.4
20260901112003 74 157 0.0 0.0 0.00 0.00 0.00 94 1017.3
20260901111503 74 157 0.0 0.0 0.00 0.00 0.00 94 1017.4
20260901111004 74 157 0.0 0.0 0.00 0.00 0.00 94 1017.4
20260901110503 74 157 0.0 0.0 0.00 0.00 0.00 94 1017.3
20260901110003 74 157 0.0 0.0 0.00 0.00 0.00 94 1017.2
20260901105503 74 157 0.0 0.0 0.00 0.00 0.00 94 1017.2
20260901105003 74 157 0.0 0.0 0.00 0.00 0.00 94 1017.2
20260901104504 74 157 0.0 0.0 0.00 0.00 0.00 94 1017.2
20260901104003 74 157 0.0 0.0 0.00 0.00 0.00 94 1017.2
20260901103504 74 157 0.0 0.0 0.00 0.00 0.00 94 1017.1
20260901103004 74 157 0.0 0.0 0.00 0.00 0.00 94 1017.1
20260901102503 74 157 0.0 0.0 0.00 0.00 0.00 94 1017.1
20260901102003 74 157 0.0 0.0 0.00 0.00 0.00 94 1017.1
20260901101503 74 157 0.0 0.0 0.00 0.00 0.00 94 1017.1
20260901101003 74 157 0.0 0.0 0.00 0.00 0.00 94 1017.2
20260901100503 74 157 0.0 0.0 0.00 0.00 0.00 94 1017.2
20260901100003 74 157 0.0 0.0 0.00 0.00 0.00 94 1017.3
20260901095504 74 157 0.0 0.0 0.00 0.00 0.00 94 1017.2
20260901095003 74 157 0.0 0.0 0.00 0.00 0.00 94 1017.2
20260901094502 74 157 0.0 0.0 0.00 0.00 0.00 94 1017.1
20260901094003 74 157 0.0 0.0 0.00 0.00 0.00 94 1017.1
20260901093503 74 157 0.0 0.0 0.00 0.00 0.00 94 1017.1
20260901093003 74 157 0.0 0.0 0.00 0.00 0.00 94 1017.2
20260901092503 74 157 0.0 0.0 0.00 0.00 0.00 93 1017.2
20260901092004 74 157 0.0 0.0 0.00 0.00 0.00 93 1017.2
20260901091503 74 157 0.0 0.0 0.00 0.00 0.00 93 1017.2
20260901091003 74 157 0.0 0.0 0.00 0.00 0.00 93 1017.2
20260901090503 74 157 0.0 0.0 0.00 0.00 0.00 93 1017.1
20260901090002 74 157 0.0 0.0 0.00 0.00 0.00 93 1017.2
20260901085502 74 157 0.0 0.0 0.00 0.00 0.00 93 1017.1
20260901085003 74 157 0.0 0.0 0.00 0.00 0.00 93 1017.1
20260901084503 74 157 0.0 0.0 0.00 0.00 0.00 93 1017.1
20260901084003 74 157 0.0 0.0 0.00 0.00 0.00 93 1017.0
20260901083503 74 157 0.0 0.0 0.00 0.00 0.00 93 1017.0
20260901083003 74 157 0.0 0.0 0.00 0.00 0.00 93 1017.2
20260901082502 74 157 0.0 0.0 0.00 0.00 0.00 93 1017.2
20260901082004 74 157 0.0 0.0 0.00 0.00 0.00 93 1017.2
20260901081503 74 157 0.0 0.0 0.00 0.00 0.00 92 1017.2
20260901081004 74 157 0.0 0.0 0.00 0.00 0.00 92 1017.2
20260901080503 75 157 0.0 0.0 0.00 0.00 0.00 92 1017.2
20260901080002 75 157 0.0 0.0 0.00 0.00 0.00 92 1017.2
20260901075502 75 157 0.0 0.0 0.00 0.00 0.00 92 1017.2
20260901075003 75 157 0.0 0.0 0.00 0.00 0.00 92 1017.2
20260901074503 75 157 0.0 0.0 0.00 0.00 0.00 92 1017.2
20260901074003 75 157 0.0 0.0 0.00 0.00 0.00 92 1017.2
20260901073503 75 157 0.0 0.0 0.00 0.00 0.00 92 1017.1
20260901073002 75 157 0.0 0.0 0.00 0.00 0.00 92 1017.2
20260901072502 75 157 0.0 0.0 0.00 0.00 0.00 92 1017.3
20260901072003 75 157 0.0 0.0 0.00 0.00 0.00 92 1017.4
20260901071503 75 157 0.0 0.0 0.00 0.00 0.00 92 1017.4
20260901071003 75 157 0.0 0.0 0.00 0.00 0.00 92 1017.4
20260901070503 75 157 0.0 0.0 0.00 0.00 0.00 92 1017.5
20260901070003 75 157 0.0 0.0 0.00 0.00 0.00 91 1017.5
20260901065503 76 157 0.0 0.0 0.00 0.00 0.00 91 1017.5
20260901065003 76 157 0.0 0.0 0.00 0.00 0.00 91 1017.6
20260901064503 76 157 0.0 0.0 0.00 0.00 0.00 91 1017.5
20260901064003 76 157 0.0 0.0 0.00 0.00 0.00 91 1017.6
20260901063502 76 157 0.0 0.0 0.00 0.00 0.00 91 1017.7
20260901063004 76 157 0.0 0.0 0.00 0.00 0.00 91 1017.7
20260901062503 76 157 0.0 0.0 0.00 0.00 0.00 91 1017.8
20260901062003 76 157 0.0 0.0 0.00 0.00 0.00 90 1017.8
20260901061503 76 157 0.0 0.0 0.00 0.00 0.00 90 1017.7
20260901061002 76 157 0.0 0.0 0.00 0.00 0.00 90 1017.8
20260901060503 77 157 0.0 0.0 0.00 0.00 0.00 90 1017.8
20260901060003 77 157 0.0 0.0 0.00 0.00 0.00 90 1017.8
20260901055502 77 157 0.0 0.0 0.00 0.00 0.00 90 1017.9
20260901055003 77 157 0.0 0.0 0.00 0.00 0.00 89 1018.0
20260901054502 77 157 0.0 0.0 0.00 0.00 0.00 89 1018.0
20260901054003 77 157 0.0 0.0 0.00 0.00 0.00 89 1018.1
20260901053503 78 157 0.0 0.0 0.00 0.00 0.00 89 1018.1
20260901053003 78 157 0.0 0.0 0.00 0.00 0.00 88 1018.1
20260901052515 78 157 0.0 0.0 0.00 0.00 0.00 88 1018.2
20260901052003 78 157 0.0 0.0 0.00 0.00 0.00 88 1018.2
20260901051503 78 157 0.0 0.0 0.00 0.00 0.00 88 1018.2
20260901051002 78 157 0.0 0.0 0.00 0.00 0.00 88 1018.2
20260901050502 78 157 0.0 0.0 0.00 0.00 0.00 88 1018.2
20260901050003 78 157 0.0 0.0 0.00 0.00 0.00 88 1018.2
20260901045503 78 157 0.0 2.0 0.00 0.00 0.00 87 1018.3
20260901045004 78 157 0.0 2.0 0.00 0.00 0.00 87 1018.3
20260901044505 78 157 0.0 0.0 0.00 0.00 0.00 87 1018.3
20260901044003 78 157 0.0 0.0 0.00 0.00 0.00 87 1018.4
20260901043504 78 157 0.0 0.0 0.00 0.00 0.00 86 1018.3
20260901043002 79 157 0.0 0.0 0.00 0.00 0.00 86 1018.3
20260901042502 79 157 0.0 0.0 0.00 0.00 0.00 86 1018.3
20260901042002 79 157 0.0 0.0 0.00 0.00 0.00 85 1018.3
20260901041503 79 157 0.0 0.0 0.00 0.00 0.00 85 1018.3
20260901041004 79 157 0.0 0.0 0.00 0.00 0.00 85 1018.2
20260901040503 79 157 0.0 0.0 0.00 0.00 0.00 84 1018.2
20260901040003 79 157 0.0 1.0 0.00 0.00 0.00 84 1018.2
20260901035504 79 157 0.0 2.0 0.00 0.00 0.00 84 1018.2
20260901035003 79 157 1.0 2.0 0.00 0.00 0.00 84 1018.2
20260901034502 80 157 0.0 3.0 0.00 0.00 0.00 84 1018.2
20260901034002 80 157 0.0 3.0 0.00 0.00 0.00 83 1018.2
20260901033503 80 136 0.0 1.0 0.00 0.00 0.00 83 1018.2
20260901033003 80 137 0.0 0.0 0.00 0.00 0.00 82 1018.1
20260901031007 80 137 0.0 0.0 0.00 0.00 0.00 82 1018.1
20260901030507 81 137 0.0 0.0 0.00 0.00 0.00 82 1018.2